星链-1167 (STARLINK-1167 )

导读

STARLINK-1167是美国太空探索技术公司(SpaceX)星链计划中的低轨互联网通信卫星,于2020年1月29日发射升空,运行于约550公里近地轨道,配备相控阵天线与氩气推进器,依托星链星座架构,为全球提供低时延宽带互联网服务,推动卫星通信技术商业化落地,支撑偏远地区网络覆盖等应用场景。

基本信息
目录编号:
45071
目录名称:
STARLINK-1167
国际标识:
2020-006AD
轨道中心:
EARTH
卫星名称:
星链-1167
卫星全名:
星链-1167 (STARLINK-1167 )
卫星状态:
在轨 (已飞行2411 天)
发射日期:
2020-01-29 UTC
国别 :
美国 (US)
星等 :
--
轨道信息
数据来源 国际轨道数据 AOE轨道数据
星历时间 2026-09-05T10:56:42+0800
17小时前
查看轨道信息
2026-09-04T23:00:00+0800
1天前
查看轨道信息
半长轴 6808.835km 6808.847km
偏心率 0.0003779 0.0003372
轨道倾角 53.152° 53.153°
近地点辐角 138.795° 137.598°
升交点赤经 135.223° 137.588°
平近点角 221.334° 332.277°
近地点 428.124km 428.414km
远地点 433.272km 433.006km
周期 93.190分钟 93.190分钟
每日圈数 15.452315 15.452275
详细信息
固有亮度:
5
最大亮度:
2.5
卫星平台:
Starlink V1.0
覆盖范围:
全球
运营商:
太空探索技术公司
运营商所在国:
美国
制造商(研发单位):
太空探索技术公司
制造商所在国:
美国
使用方式:
暂无
卫星简介
星链(Starlink)计划是由太空探索技术公司(SpaceX)提出的一个巨型低轨卫星互联网星座项目,计划在2019年至2024年间在太空搭建由约1.2万颗卫星组成的“星链”网络,其中1584颗将部署在地球上空550千米处的近地轨道,并从2020年开始工作。该卫星仍在工作。
2D轨道图
3D轨道图
轨道高度分析图
轨道倾角分析图
轨道综合分析图
查看轨道综合分析图
交会数据列表
事件ID 空间交会对象 最接近时刻(TCA) 交会距离 交会风险概率(CRP) 交会风险指数(CRI) 操作
CDM_260907-123604-507106-052622
DEIMOS (60526)
2026-09-07T
12:36:56+0000
0.357 km
远距离
3.858949E-4 高风险 0.87
CDM_260905-201104-507105-825922
2026-09-05T
20:11:49+0000
2.353 km
极远距离
1.950855E-6 低风险 0.41